Location: *
(10.4782°N, 67.2163°W)
Time: 12:22:58
(UTC+00:00)

Cosmos 1536 Rocket - Pass Details

Date: 23 May 2024
Orbit: 601 x 629 km, 82.5° (Epoch: 20 June)

Event Time Altitude Azimuth Distance (km) Brightness Sun altitude
Exits shadow 09:02:11 - 183° (S) 2,579 6.5 -15.3°
Reaches altitude 10° 09:03:40 10° 183° (S) 1,976 5.9 -14.9°
Maximum altitude 09:08:03 87° 97° (E) 625 3.6 -14.0°
Drops below altitude 10° 09:12:29 10° 5° (N) 1,990 6.6 -13.0°
Sets 09:14:42 0° 5° (N) 2,900 7.4 -12.5°
